Starlink 3732

operational
NORAD ID: 52126 Int'l Des: 2022-029 Owner: SPXS Country: US Constellation: starlink
LEOCIRCULAR

关于 Starlink 3732

正在加载描述...

实时位置

正在加载3D地球...

即将过境

高度历史

Altitude vs Time

uPlot chart will show altitude changes over time

两行轨道根数

1 52126U 22029AQ 25353.94416216 .00000389 00000-0 42504-4 0 9991
2 52126 53.2197 67.1128 0001400 88.0682 272.0471 15.08838240208885
Epoch: Dec 19, 2025 • Age: 7 hours

当前状态

高度 541.5 km
速度 7.60 km/s
星下点 34.16°N, 42.19°E
发射日期 Mar 19, 2022
运行时间 3.7 years
类型 internet

技术详情

分类 Payload
质量 297.00 kg
干质量 275.00 kg
总质量 297.00 kg
长度 0.20 m
直径 2.80 m
跨度 9.00 m
形状 Box + pan
制造商 SPXS
平台类型 Starlink
阶段状态 In Orbit
所有者/国家 SPXS/US

大型星座

Loading constellations...